Vertical_Velocity
-2 -0 -0 -1 0 -1 -1 1 -1 -2 -2 -2 -2 -1 -1 -0 -1 -2 -0 -2 -4 -1 -0 -2 4 -4 10 4 -2 -3 8 -0 -6 3 -15 1 2 -1 -3 0 2 0 3 0 -4
-2 -1 0 -1 0 -3 -2 -2 -1 -2 -2 1 3 1 -1 -2 -1 1 -0 -1 1 -0 -0 -3 4 0 2 4 -6 7 5 -6 -4 -2 -3 -0 2 1 4 2 3 2 2 4 1
-2 -1 -0 -1 -1 -0 -2 -2 -1 -1 -1 -1 -1 -2 -1 1 2 -0 -2 -0 -1 -2 -1 -0 1 2 3 2 -1 -1 -2 -3 -1 0 1 -1 2 -1 1 3 -3 -5 -2 3 3
-1 -2 -0 -2 -1 -0 -0 -1 -1 -2 -1 -0 -2 -0 -3 -1 5 0 -3 -1 4 -3 -0 0 2 4 1 1 -0 3 -1 -2 -0 -1 0 1 1 0 0 4 1 1 2 -1 -3
0 -1 -0 -2 -1 -1 -1 0 2 -2 -2 1 -1 -2 -7 3 -4 -2 -3 2 1 -1 -1 -1 -1 2 0 1 4 4 -0 -0 0 -1 -0 -0 -1 -5 -2 2 0 2 5 4 2
1 -0 -1 -1 -1 -0 -1 -1 1 1 -2 0 1 0 -2 5 2 -2 -2 1 -3 -2 0 2 -1 -0 -1 1 3 -3 -0 -1 2 -1 -1 3 -1 3 -9 1 -0 3 4 4 -3
-0 0 -0 -1 -0 -2 1 -0 1 2 -0 0 1 -2 0 -1 1 1 1 -1 -2 -2 1 -1 -4 1 -5 1 -1 2 -0 1 1 -3 -2 0 4 -1 2 1 3 3 5 1 -0
-0 -0 0 -0 -2 -1 -1 -0 0 -1 1 0 1 -1 -1 -2 -2 3 -2 -0 -2 -1 -0 -1 -2 -4 -7 3 -0 3 5 5 -2 2 -6 6 -9 -2 1 2 1 2 -0 5 2
-1 -1 -0 -1 -2 -1 -0 -1 -1 -1 2 -1 1 0 2 -4 -3 3 -6 -6 2 -1 1 1 3 2 4 2 2 3 -0 2 1 -1 0 5 -3 -1 -0 1 3 1 -0 5 4
-1 -1 -1 -0 -1 -2 -0 -1 -1 -0 1 -2 -1 2 1 0 -3 2 2 -4 0 4 2 2 2 2 3 3 -0 -1 1 1 -2 2 7 2 -4 -1 -0 1 -0 2 2 6 6
-0 -2 -0 0 -0 -1 -0 -0 0 -0 0 -1 0 -2 2 0 -3 -3 3 -1 -2 1 2 -1 6 -0 -1 -1 2 -2 1 1 -3 -2 7 -4 -1 -3 -0 0 0 4 0 4 2
-0 -0 -1 -1 -1 -1 -0 0 -2 -0 -4 1 -2 -1 1 0 -0 -3 3 3 -1 0 -1 1 -0 -1 0 0 1 1 0 -3 -2 -0 8 1 -4 -2 -0 -1 0 1 5 -1 2
-2 -0 -0 -1 -2 -2 -0 -1 1 -2 2 0 -1 -0 1 -0 -1 1 -3 -1 -0 1 -0 1 2 0 -0 1 3 -0 -1 -1 2 1 2 4 5 2 -0 1 0 1 2 -0 -2
-1 -2 -0 -1 -0 -2 -2 -1 -2 -0 3 -0 2 -0 1 -0 1 -0 1 2 2 1 0 2 1 1 1 -0 2 1 -1 1 1 4 -1 6 -3 2 -1 2 1 1 3 -0 -5
-2 -2 -1 -1 -2 3 1 -2 -2 -0 0 0 0 2 -1 1 0 2 -2 -1 1 0 6 7 0 1 1 -4 1 5 1 -0 0 0 3 4 6 -5 1 3 2 1 2 3 -9
0 -2 -1 1 -3 0 3 4 -3 1 -5 -4 -2 0 0 0 -0 -0 1 0 -1 1 1 0 -1 1 1 -1 0 1 2 2 1 1 4 -1 4 0 -2 -9 2 2 1 -1 6
-1 -1 -1 1 1 -0 -2 2 -2 -1 -1 -3 0 -0 0 -1 -1 -1 0 1 2 4 2 1 1 0 0 3 1 3 3 1 4 3 1 0 4 -0 1 0 -1 -2 0 4 7
-1 -0 -2 -2 -1 1 -0 4 -1 -1 -1 1 0 -0 2 1 0 -1 0 1 1 1 0 1 2 1 2 1 2 -2 3 -2 1 -0 1 1 -2 -0 0 0 -1 -1 0 4 -0
-0 -2 -1 -3 -1 -3 3 0 -3 -1 -1 0 1 1 -1 1 2 1 0 1 -0 1 5 1 1 1 0 0 2 3 3 3 -1 1 3 -1 -2 6 1 2 0 0 0 0 1
-1 -3 0 -2 -4 -3 2 -2 -0 -1 -0 1 0 1 0 -1 2 1 0 0 -0 0 1 0 3 0 1 2 2 4 2 6 2 2 -0 1 -1 -1 1 1 1 2 1 1 2
-1 -0 -1 -4 2 -3 1 -2 -0 -0 -1 -0 -0 1 -1 0 1 -0 -2 -1 0 -0 0 1 4 4 2 1 -1 4 2 3 3 2 2 1 -2 0 -0 0 -0 1 2 1 2
1 2 0 4 2 -1 -0 1 1 -1 1 -0 1 1 0 -0 0 1 -0 -0 -0 -1 1 1 2 0 -2 1 1 1 0 0 3 1 1 3 -3 0 -0 -0 -0 1 2 2 2
-0 -2 -0 1 1 1 0 -1 -1 1 -1 1 0 0 0 0 3 0 0 -1 -1 0 -1 1 0 0 3 5 3 1 -0 -0 0 1 -2 3 2 0 0 2 1 -1 1 1 -0
1 1 1 -0 -1 1 0 -1 -0 0 -0 -0 0 0 1 1 0 -0 -0 1 -0 0 -0 1 0 2 2 4 2 1 1 0 1 1 -1 -4 1 2 1 0 3 2 3 1 1
0 -2 2 0 1 0 2 -0 0 0 0 1 1 0 -3 1 1 -1 0 1 2 0 1 3 1 1 -2 -1 1 0 0 0 1 -2 2 1 0 -3 -3 -3 -1 -1 1 2 4
3 2 -1 -1 -0 2 -0 -3 -1 0 -4 -0 3 -1 1 -0 -4 -1 -0 1 -1 3 0 0 0 0 -1 0 1 0 -0 0 -0 -1 1 1 -2 -3 1 2 1 -0 -0 2 1
2 -3 6 -5 0 4 -5 -4 -4 0 -3 1 -4 -0 3 -12 -1 -1 0 -0 -0 -1 -0 0 1 0 -2 0 -0 2 -3 -2 -1 0 -2 -0 -4 0 4 1 -1 -0 -0 -1 -1
Height
1557 1556 1554 1552 1550 1549 1547 1545 1543 1541 1539 1537 1535 1532 1529 1527 1525 1523 1523 1522 1519 1517 1516 1516 1516 1517 1519 1520 1521 1523 1516 1509 1506 1507 1505 1506 1506 1508 1509 1510 1512 1514 1516 1517 1521
1557 1556 1554 1553 1551 1550 1548 1546 1544 1542 1540 1538 1536 1532 1529 1526 1523 1522 1522 1520 1517 1516 1515 1515 1515 1516 1517 1518 1521 1518 1513 1509 1508 1508 1505 1507 1508 1506 1508 1509 1511 1514 1515 1517 1520
1556 1555 1555 1553 1552 1550 1548 1546 1544 1542 1540 1538 1536 1533 1529 1525 1524 1523 1520 1518 1516 1514 1514 1513 1513 1514 1515 1516 1518 1515 1512 1512 1514 1514 1512 1509 1508 1508 1505 1506 1505 1509 1513 1517 1519
1554 1555 1554 1553 1552 1550 1548 1546 1544 1542 1540 1538 1535 1532 1530 1526 1526 1522 1519 1516 1514 1513 1513 1512 1513 1513 1513 1512 1515 1516 1513 1514 1514 1514 1512 1510 1509 1505 1506 1503 1506 1508 1509 1513 1518
1553 1553 1553 1552 1551 1549 1547 1545 1543 1541 1539 1537 1534 1532 1530 1528 1526 1521 1517 1515 1514 1513 1513 1512 1513 1513 1512 1512 1514 1512 1512 1513 1513 1513 1512 1511 1508 1506 1504 1505 1505 1507 1509 1512 1519
1551 1551 1551 1551 1550 1548 1547 1545 1543 1541 1538 1536 1534 1531 1529 1528 1523 1519 1516 1516 1514 1514 1513 1512 1513 1514 1514 1512 1511 1511 1514 1512 1512 1513 1512 1510 1506 1506 1500 1503 1505 1507 1508 1512 1517
1550 1548 1548 1548 1547 1547 1545 1544 1541 1539 1536 1535 1532 1530 1529 1528 1523 1520 1516 1516 1515 1514 1514 1514 1513 1515 1515 1512 1512 1512 1517 1513 1509 1511 1510 1510 1505 1502 1500 1502 1504 1507 1509 1512 1516
1549 1547 1545 1545 1544 1544 1543 1541 1540 1537 1535 1533 1531 1529 1528 1525 1522 1519 1516 1516 1515 1514 1514 1514 1514 1514 1515 1513 1513 1510 1510 1509 1501 1507 1508 1509 1498 1498 1500 1500 1501 1506 1508 1510 1514
1548 1545 1543 1541 1541 1540 1539 1538 1537 1535 1533 1532 1530 1528 1527 1525 1523 1520 1517 1517 1515 1515 1514 1514 1514 1513 1513 1508 1511 1512 1506 1504 1502 1503 1503 1506 1498 1496 1498 1498 1498 1502 1504 1508 1512
1547 1544 1542 1539 1537 1537 1536 1535 1533 1533 1531 1531 1530 1530 1526 1525 1523 1521 1519 1518 1517 1516 1516 1515 1514 1509 1507 1506 1505 1517 1508 1504 1501 1501 1502 1501 1499 1494 1498 1498 1496 1499 1504 1504 1509
1546 1543 1540 1538 1536 1534 1534 1533 1534 1533 1530 1529 1529 1526 1525 1524 1523 1521 1518 1518 1518 1518 1513 1515 1511 1507 1504 1505 1508 1509 1514 1504 1499 1500 1501 1499 1498 1493 1497 1497 1497 1498 1503 1505 1510
1545 1542 1539 1536 1535 1533 1532 1531 1531 1533 1529 1526 1526 1525 1523 1523 1522 1520 1520 1519 1516 1514 1515 1515 1512 1507 1509 1509 1509 1510 1512 1502 1499 1499 1501 1496 1497 1492 1496 1495 1496 1498 1500 1503 1508
1544 1542 1539 1536 1534 1533 1533 1532 1530 1530 1530 1526 1524 1524 1523 1523 1521 1519 1519 1518 1515 1513 1512 1513 1512 1508 1509 1507 1506 1505 1514 1503 1497 1497 1497 1495 1496 1492 1495 1495 1497 1499 1500 1502 1510
1544 1541 1539 1535 1535 1532 1532 1531 1531 1530 1530 1525 1524 1524 1523 1521 1521 1518 1517 1519 1515 1511 1512 1510 1510 1509 1506 1504 1504 1502 1500 1502 1500 1497 1495 1494 1497 1488 1489 1492 1494 1498 1498 1501 1507
1545 1541 1538 1535 1534 1533 1533 1530 1530 1531 1534 1527 1524 1522 1520 1522 1520 1516 1516 1516 1513 1511 1513 1510 1509 1508 1507 1505 1503 1502 1502 1499 1499 1499 1495 1494 1494 1479 1490 1493 1492 1494 1496 1500 1503
1544 1541 1538 1537 1534 1534 1531 1530 1530 1533 1533 1530 1524 1522 1520 1519 1518 1516 1516 1516 1514 1511 1510 1509 1509 1509 1505 1505 1506 1504 1502 1497 1498 1497 1501 1490 1492 1479 1485 1481 1486 1494 1498 1502 1502
1544 1540 1537 1535 1535 1533 1531 1531 1532 1528 1531 1528 1526 1524 1523 1519 1517 1516 1515 1512 1510 1511 1504 1506 1505 1507 1508 1506 1506 1506 1501 1501 1503 1502 1494 1499 1496 1478 1483 1487 1486 1490 1495 1500 1505
1543 1539 1536 1535 1534 1533 1532 1531 1532 1529 1524 1527 1527 1524 1521 1521 1517 1516 1514 1509 1514 1510 1506 1502 1504 1502 1504 1503 1500 1500 1498 1498 1499 1495 1491 1501 1488 1474 1485 1489 1491 1492 1494 1495 1498
1541 1538 1534 1534 1533 1534 1535 1531 1522 1524 1525 1525 1523 1521 1518 1520 1521 1515 1513 1511 1512 1512 1505 1501 1499 1503 1505 1503 1504 1498 1498 1499 1502 1507 1491 1486 1483 1481 1485 1488 1490 1492 1494 1494 1496
1539 1535 1533 1532 1533 1534 1536 1527 1523 1524 1525 1526 1519 1522 1519 1517 1517 1514 1512 1512 1512 1513 1512 1507 1501 1503 1504 1504 1502 1499 1500 1496 1495 1497 1492 1485 1484 1475 1489 1485 1490 1492 1493 1496 1499
1537 1533 1531 1531 1531 1533 1534 1527 1524 1522 1523 1525 1522 1520 1519 1519 1520 1515 1511 1511 1513 1513 1513 1510 1508 1503 1503 1497 1489 1498 1493 1496 1496 1491 1482 1479 1476 1484 1486 1487 1489 1492 1494 1497 1500
1536 1533 1528 1528 1533 1532 1530 1529 1527 1523 1523 1523 1524 1521 1519 1518 1516 1515 1510 1509 1512 1513 1510 1510 1506 1498 1492 1497 1499 1498 1491 1484 1482 1488 1491 1487 1476 1485 1486 1489 1491 1494 1496 1499 1501
1535 1530 1525 1527 1524 1524 1524 1524 1523 1523 1522 1522 1520 1520 1520 1517 1515 1511 1510 1510 1511 1511 1508 1510 1503 1495 1491 1498 1499 1496 1494 1494 1493 1491 1486 1479 1469 1486 1488 1488 1492 1494 1498 1500 1503
1536 1529 1524 1523 1521 1519 1518 1516 1518 1518 1518 1519 1518 1518 1519 1516 1515 1511 1507 1508 1510 1510 1510 1510 1505 1498 1488 1491 1494 1492 1492 1494 1491 1487 1477 1473 1474 1484 1487 1488 1490 1494 1497 1500 1503
1533 1525 1521 1516 1515 1516 1517 1513 1510 1511 1515 1515 1514 1512 1513 1512 1512 1511 1508 1507 1508 1509 1510 1508 1500 1505 1497 1496 1497 1492 1489 1490 1492 1482 1480 1477 1477 1476 1483 1489 1492 1494 1498 1502 1503
1529 1525 1522 1517 1515 1514 1512 1507 1504 1505 1506 1507 1508 1504 1507 1506 1502 1503 1505 1505 1501 1508 1507 1509 1499 1502 1490 1494 1494 1491 1485 1487 1487 1485 1484 1484 1479 1477 1484 1489 1493 1496 1499 1502 1503
1524 1521 1521 1511 1510 1510 1501 1497 1498 1500 1497 1496 1495 1500 1503 1496 1499 1502 1503 1503 1502 1501 1502 1504 1502 1501 1488 1494 1491 1479 1470 1476 1478 1480 1476 1479 1469 1480 1486 1489 1491 1494 1498 1500 1503